DIJAN TNCS-TNCM

Flight info

Callsign DIJAN
Flight time N/A
Altitude 1500
Route TNCS TFFJ TNCM
Aircraft BE58/L-SDES/EB2

Departure

Time 2026-04-19 08:18
Airport Juancho E. Yrausquin Airport (TNCS)

Arrival

Time N/A
Airport Princess Juliana International Airport (TNCM)
Time Latitude Longitude Altitude Speed Heading
2026-04-19 08:08 17.64463 -63.22048 130 ft 0 kts 29°
2026-04-19 08:15 17.64473 -63.22042 129 ft 5 kts 32°
2026-04-19 08:15 17.64528 -63.22028 130 ft 9 kts 316°
2026-04-19 08:15 17.64549 -63.22082 132 ft 13 kts 288°
2026-04-19 08:16 17.64589 -63.22178 140 ft 13 kts 307°
2026-04-19 08:16 17.64599 -63.22218 140 ft 3 kts 156°
2026-04-19 08:16 17.64594 -63.22197 140 ft 2 kts 111°
2026-04-19 08:16 17.64594 -63.22196 140 ft 0 kts 113°
2026-04-19 08:17 17.64560 -63.22111 134 ft 46 kts 112°
2026-04-19 08:17 17.64353 -63.21606 171 ft 95 kts 112°
2026-04-19 08:17 17.64204 -63.20845 304 ft 116 kts 93°
2026-04-19 08:18 17.64449 -63.20061 644 ft 120 kts 59°
2026-04-19 08:18 17.65064 -63.19363 797 ft 133 kts 54°
2026-04-19 08:18 17.65674 -63.18640 935 ft 131 kts 58°
2026-04-19 08:18 17.66203 -63.17866 971 ft 130 kts 64°
2026-04-19 08:19 17.66751 -63.17104 991 ft 131 kts 58°
2026-04-19 08:19 17.67327 -63.16378 1043 ft 130 kts 60°
2026-04-19 08:19 17.67854 -63.15578 968 ft 135 kts 60°
2026-04-19 08:19 17.68432 -63.14825 1064 ft 129 kts 56°
2026-04-19 08:20 17.68993 -63.14092 1085 ft 130 kts 58°
2026-04-19 08:20 17.69556 -63.13331 1102 ft 133 kts 59°
2026-04-19 08:20 17.70160 -63.12604 1188 ft 130 kts 52°
2026-04-19 08:20 17.70776 -63.11916 1265 ft 128 kts 52°
2026-04-19 08:21 17.71365 -63.11249 1418 ft 123 kts 53°
2026-04-19 08:21 17.71946 -63.10569 1484 ft 127 kts 57°
2026-04-19 08:21 17.72502 -63.09820 1480 ft 132 kts 61°
2026-04-19 08:21 17.73050 -63.09043 1480 ft 131 kts 58°
2026-04-19 08:22 17.73597 -63.08278 1489 ft 131 kts 61°
2026-04-19 08:22 17.74163 -63.07511 1520 ft 137 kts 58°
2026-04-19 08:22 17.74773 -63.06703 1487 ft 144 kts 58°
2026-04-19 08:22 17.75412 -63.05885 1484 ft 146 kts 58°
2026-04-19 08:23 17.76040 -63.05041 1523 ft 147 kts 59°
2026-04-19 08:23 17.76655 -63.04180 1521 ft 148 kts 59°
2026-04-19 08:23 17.77321 -63.03334 1495 ft 153 kts 52°
2026-04-19 08:23 17.78105 -63.02550 1441 ft 158 kts 48°
2026-04-19 08:24 17.78954 -63.01824 1461 ft 155 kts 45°
2026-04-19 08:24 17.79754 -63.01088 1508 ft 151 kts 50°
2026-04-19 08:24 17.80509 -63.00330 1518 ft 152 kts 51°
2026-04-19 08:24 17.81268 -62.99531 1472 ft 156 kts 51°
2026-04-19 08:25 17.82039 -62.98745 1479 ft 153 kts 50°
2026-04-19 08:25 17.82791 -62.97973 1505 ft 151 kts 52°
2026-04-19 08:25 17.83512 -62.97180 1558 ft 149 kts 53°
2026-04-19 08:25 17.84225 -62.96405 1607 ft 147 kts 52°
2026-04-19 08:26 17.84933 -62.95611 1538 ft 151 kts 54°
2026-04-19 08:26 17.85635 -62.94795 1504 ft 151 kts 54°
2026-04-19 08:26 17.86345 -62.93978 1484 ft 150 kts 55°
2026-04-19 08:26 17.87018 -62.93158 1525 ft 147 kts 57°
2026-04-19 08:27 17.87685 -62.92337 1500 ft 147 kts 57°
2026-04-19 08:27 17.88302 -62.91533 1551 ft 138 kts 59°
2026-04-19 08:27 17.88860 -62.90764 1584 ft 125 kts 60°
2026-04-19 08:27 17.89372 -62.90093 1625 ft 113 kts 63°
2026-04-19 08:28 17.89790 -62.89419 1496 ft 107 kts 70°
2026-04-19 08:28 17.90063 -62.88714 1455 ft 104 kts 77°
2026-04-19 08:28 17.90216 -62.87975 1470 ft 102 kts 86°
2026-04-19 08:28 17.90307 -62.87246 1453 ft 98 kts 88°
2026-04-19 08:29 17.90380 -62.86558 1345 ft 91 kts 88°
2026-04-19 08:29 17.90407 -62.85881 882 ft 94 kts 92°
2026-04-19 08:29 17.90402 -62.85196 438 ft 94 kts 88°
2026-04-19 08:29 17.90439 -62.84507 59 ft 90 kts 91°
2026-04-19 08:30 17.90531 -62.83814 201 ft 103 kts 64°
2026-04-19 08:30 17.91203 -62.83425 420 ft 127 kts
2026-04-19 08:30 17.92024 -62.83842 699 ft 142 kts 317°
2026-04-19 08:30 17.92448 -62.84791 794 ft 146 kts 287°
2026-04-19 08:31 17.92647 -62.85813 862 ft 140 kts 283°
2026-04-19 08:31 17.92694 -62.86802 993 ft 134 kts 270°
2026-04-19 08:31 17.92567 -62.87771 1135 ft 135 kts 256°
2026-04-19 08:31 17.92208 -62.88675 1356 ft 134 kts 227°
2026-04-19 08:32 17.91460 -62.89150 1492 ft 122 kts 170°
2026-04-19 08:32 17.90808 -62.88757 1504 ft 108 kts 118°
2026-04-19 08:32 17.90520 -62.88025 1493 ft 107 kts 106°
2026-04-19 08:32 17.90376 -62.87315 1506 ft 93 kts 93°
2026-04-19 08:33 17.90387 -62.86648 1412 ft 91 kts 88°
2026-04-19 08:33 17.90407 -62.85983 1003 ft 92 kts 90°
2026-04-19 08:33 17.90409 -62.85284 482 ft 98 kts 87°
2026-04-19 08:33 17.90432 -62.84571 93 ft 97 kts 88°
2026-04-19 08:34 17.90602 -62.83832 250 ft 116 kts 54°
2026-04-19 08:34 17.91377 -62.83537 535 ft 133 kts 355°
2026-04-19 08:34 17.92146 -62.84079 837 ft 143 kts 304°
2026-04-19 08:34 17.92470 -62.85090 1037 ft 147 kts 287°
2026-04-19 08:35 17.92696 -62.86130 1239 ft 146 kts 287°
2026-04-19 08:35 17.92916 -62.87179 1432 ft 148 kts 286°
2026-04-19 08:35 17.92966 -62.88213 1510 ft 142 kts 251°
2026-04-19 08:35 17.92326 -62.88921 1512 ft 133 kts 188°
2026-04-19 08:36 17.91466 -62.88841 1486 ft 120 kts 147°
2026-04-19 08:36 17.90812 -62.88356 1404 ft 113 kts 130°
2026-04-19 08:36 17.90391 -62.87709 1366 ft 102 kts 103°
2026-04-19 08:36 17.90363 -62.87028 1395 ft 88 kts 89°
2026-04-19 08:37 17.90361 -62.86385 1256 ft 89 kts 90°
2026-04-19 08:37 17.90395 -62.85719 828 ft 90 kts 88°
2026-04-19 08:37 17.90408 -62.85044 334 ft 96 kts 86°
2026-04-19 08:37 17.90446 -62.84353 61 ft 94 kts 92°
2026-04-19 08:38 17.90543 -62.83607 221 ft 114 kts 71°
2026-04-19 08:38 17.91057 -62.82957 579 ft 117 kts 40°
2026-04-19 08:38 17.91881 -62.82855 885 ft 134 kts 344°
2026-04-19 08:38 17.92446 -62.83611 1255 ft 142 kts 285°
2026-04-19 08:39 17.92559 -62.84644 1522 ft 140 kts 278°
2026-04-19 08:39 17.92664 -62.85665 1481 ft 142 kts 283°
2026-04-19 08:39 17.92769 -62.86702 1461 ft 144 kts 278°
2026-04-19 08:39 17.92675 -62.87739 1447 ft 145 kts 244°
2026-04-19 08:40 17.92014 -62.88491 1536 ft 137 kts 203°
2026-04-19 08:40 17.91144 -62.88649 1539 ft 122 kts 155°
2026-04-19 08:40 17.90522 -62.88139 1485 ft 110 kts 117°
2026-04-19 08:40 17.90390 -62.87406 1457 ft 97 kts 90°
2026-04-19 08:41 17.90410 -62.86735 1375 ft 87 kts 91°
2026-04-19 08:41 17.90408 -62.86082 935 ft 90 kts 92°
2026-04-19 08:41 17.90400 -62.85427 541 ft 89 kts 89°
2026-04-19 08:41 17.90421 -62.84799 162 ft 85 kts 89°
2026-04-19 08:42 17.90439 -62.84171 63 ft 94 kts 91°
2026-04-19 08:42 17.90704 -62.83481 276 ft 113 kts 47°
2026-04-19 08:42 17.91494 -62.83333 574 ft 133 kts 339°
2026-04-19 08:42 17.92060 -62.84118 906 ft 137 kts 298°
2026-04-19 08:43 17.92432 -62.85051 1195 ft 141 kts 294°
2026-04-19 08:43 17.92676 -62.86052 1468 ft 142 kts 281°
2026-04-19 08:43 17.92740 -62.87094 1512 ft 144 kts 277°
2026-04-19 08:43 17.92732 -62.88140 1522 ft 141 kts 257°
2026-04-19 08:44 17.92199 -62.88957 1555 ft 137 kts 206°
2026-04-19 08:44 17.91336 -62.89111 1534 ft 122 kts 154°
2026-04-19 08:44 17.90677 -62.88632 1495 ft 112 kts 126°
2026-04-19 08:44 17.90329 -62.87951 1459 ft 98 kts 101°
2026-04-19 08:45 17.90356 -62.87273 1446 ft 90 kts 87°
2026-04-19 08:45 17.90395 -62.86618 1336 ft 87 kts 90°
2026-04-19 08:45 17.90392 -62.85970 871 ft 91 kts 92°
2026-04-19 08:45 17.90412 -62.85309 492 ft 89 kts 87°
2026-04-19 08:46 17.90428 -62.84672 91 ft 87 kts 89°
2026-04-19 08:46 17.90438 -62.84034 79 ft 96 kts 88°
2026-04-19 08:46 17.90696 -62.83358 397 ft 106 kts 50°
2026-04-19 08:46 17.91417 -62.83132 742 ft 122 kts 354°
2026-04-19 08:47 17.92133 -62.83638 1106 ft 131 kts 307°
2026-04-19 08:47 17.92414 -62.84549 1409 ft 132 kts 285°
2026-04-19 08:47 17.92618 -62.85505 1438 ft 136 kts 286°
2026-04-19 08:47 17.92816 -62.86475 1459 ft 135 kts 285°
2026-04-19 08:48 17.92956 -62.87449 1500 ft 136 kts 274°
2026-04-19 08:48 17.92730 -62.88418 1483 ft 140 kts 239°
2026-04-19 08:48 17.92101 -62.89144 1616 ft 128 kts 208°
2026-04-19 08:48 17.91305 -62.89361 1606 ft 115 kts 160°
2026-04-19 08:49 17.90639 -62.88982 1490 ft 106 kts 130°
2026-04-19 08:49 17.90302 -62.88355 1450 ft 96 kts 99°
2026-04-19 08:49 17.90299 -62.87678 1432 ft 89 kts 91°
2026-04-19 08:49 17.90300 -62.87042 1427 ft 88 kts 90°
2026-04-19 08:50 17.90351 -62.86410 1205 ft 85 kts 86°
2026-04-19 08:50 17.90409 -62.85798 824 ft 85 kts 88°
2026-04-19 08:50 17.90405 -62.85177 453 ft 87 kts 90°
2026-04-19 08:50 17.90438 -62.84525 52 ft 88 kts 89°
2026-04-19 08:51 17.90477 -62.83835 143 ft 105 kts 75°
2026-04-19 08:51 17.91059 -62.83331 397 ft 122 kts 13°
2026-04-19 08:51 17.91827 -62.83670 774 ft 132 kts 317°
2026-04-19 08:51 17.92265 -62.84551 1092 ft 139 kts 292°
2026-04-19 08:52 17.92541 -62.85523 1431 ft 136 kts 289°
2026-04-19 08:52 17.92795 -62.86474 1489 ft 133 kts 292°
2026-04-19 08:52 17.93025 -62.87413 1560 ft 133 kts 283°
2026-04-19 08:52 17.92886 -62.88369 1537 ft 137 kts 240°
2026-04-19 08:53 17.92236 -62.89076 1538 ft 131 kts 203°
2026-04-19 08:53 17.91423 -62.89233 1496 ft 115 kts 156°
2026-04-19 08:53 17.90822 -62.88796 1455 ft 102 kts 119°
2026-04-19 08:53 17.90559 -62.88123 1391 ft 100 kts 107°
2026-04-19 08:54 17.90421 -62.87655 1366 ft 94 kts 102°
2026-04-19 08:54 17.90356 -62.87002 1378 ft 88 kts 88°
2026-04-19 08:54 17.90422 -62.86378 1213 ft 85 kts 91°
2026-04-19 08:54 17.90413 -62.85724 726 ft 93 kts 93°
2026-04-19 08:55 17.90416 -62.85043 282 ft 93 kts 88°
2026-04-19 08:55 17.90430 -62.84414 34 ft 70 kts 89°
2026-04-19 08:55 17.90441 -62.84175 19 ft 20 kts 89°
2026-04-19 08:55 17.90441 -62.84077 11 ft 10 kts 92°
2026-04-19 08:56 17.90455 -62.84066 10 ft 2 kts 315°
2026-04-19 08:56 17.90456 -62.84067 11 ft 0 kts 308°
2026-04-19 08:57 17.90450 -62.84095 13 ft 10 kts 255°
2026-04-19 08:57 17.90443 -62.84174 19 ft 14 kts 268°
2026-04-19 08:57 17.90440 -62.84295 28 ft 15 kts 268°
2026-04-19 08:57 17.90438 -62.84395 33 ft 17 kts 268°
2026-04-19 08:58 17.90433 -62.84563 42 ft 24 kts 274°
2026-04-19 08:58 17.90447 -62.84656 48 ft 9 kts 347°
2026-04-19 08:58 17.90465 -62.84637 52 ft 5 kts 116°
2026-04-19 08:58 17.90465 -62.84626 52 ft 0 kts 14°
2026-04-19 08:59 17.90466 -62.84626 52 ft 0 kts